Powrót do katalogu

AMC-18

AktywnyŁącznośćGEO
NORAD 29644·PAYLOAD·🇱🇺 Luxembourg

Wystrzelony Dec 8, 2006 z Guiana Space Centre

Loading…

TLE

ŚwieżeSource: Space-Track

Epoka: Sep 14, 2026, 13:49 UTC

1 29644U 06054B   26257.57605435 -.00000162  00000-0  00000-0 0  9997
2 29644   2.8416  82.6512 0009171 125.5056 357.6174  0.98861145 72277

Śledź AMC-18 w czasie rzeczywistym z AllMySat

Download on the App Store